SL-14 DEB, 45268

Orbit data source: Space-Track

SL-14 DEB, 45268 is space debris in LEO originally from a launch on Thu, 15 Aug 1991 UTC launched from the Plesetsk Missile And Space Complex (PKMTR). Debris objects in space refer to the collection of defunct objects orbiting the Earth. Examples of debris include non-operational satellites, rocket bodies, and fragments generated from explosions, collisions, or faulty payload assembly.

Loading next visibility...
Identifier
45268, 1991-056E
Orbit
LEO
Country
Flag of CISCIS
Related business
Manufacturer
Unknown
Mission
Spacecraft
Bus & Motor
Unknown
Mass
Unknown
Launch date (UTC)
1991-08-15 (34 years ago)
Launch vehicle
Unknown
Launch site
Plesetsk Missile And Space Complex (PKMTR)
Object type
Payload
Rocket body
Debris
Shape & HBR
Unknown shape, 0.4 m
Radar Cross Section
Medium (>0.1 m² and <1 m²)

Expand to show TLE details & history
Last TLE update: 16 hours ago

TLE from 16 hours ago
0 SL-14 DEB
1 45268U 91056E   25287.78468096  .00000037  00000-0  65533-4 0  9994
2 45268  82.5551 316.2970 0011097  94.4993 265.7397 13.15661548272298
Epoch: 2025-10-14T18:49Z
TLE epoch observation values (Epoch: 2025-10-14T18:49:56.434Z)
Latitude
Longitude
10.24372°
Altitude
1,204.777 km
Speed
7.251 km/s
True Right ascension
21h 05m 11s
True Declination
0° 00' 00"
Sunlit
Object was in daylight at epoch
Visualization orbit readout
Latitude
Unknown
Longitude
Unknown
Altitude
Unknown
Speed
Unknown
Apparent Right ascension
Unknown
Apparent Declination
Unknown
Sunlit
N/A
Visualization observer readout
Local Sidereal Time
05:48:30
Azimuth
Unknown
Elevation
Unknown
Doppler factor
Unknown
Orbital elements
Apogee altitude
1,206.991 km
Perigee altitude
1,190.175 km
Semi-major axis
7,576.72 km
Eccentricity
0.00111
Inclination
82.5551°
RAAN
316.297°
Arg. of periapsis
94.4993°
True anomaly
265.6129°
Mean anomaly
265.7397°
Eccentric anomaly
265.6763°
Mean motion
3.29095 °/min
Orbital period
109.39 mins
BSTAR
0.000065533
Loading maneuver chart data...
Computing Atmospheric mass density...
Loading historical data...
Loading historical data...
Loading historical data...
Loading historical data...
Loading historical data...
Loading historical data...
Loading historical data...

Documentation

Showing up to 5 results
|